Weather History for Cairo, Egypt

Change the Weather History Date:

Thursday, August 22, 2013

  Actual Average Record
Temperature  
Mean Temperature 85 °F -  
Max Temperature 94 °F 90 °F 100 °F (2006)
Min Temperature 76 °F 71 °F 71 °F (1996)
Cooling Degree Days 20    
Growing Degree Days 35 (Base 50)    
Moisture  
Dew Point 65 °F    
Average Humidity 57    
Maximum Humidity 89    
Minimum Humidity 20    
Precipitation  
Precipitation 0.00 in 0.00 in - ()
Sea Level Pressure  
Sea Level Pressure 29.81 in    
Wind  
Wind Speed 7 mph ()    
Max Wind Speed 15 mph    
Max Gust Speed -    
Visibility 3.6 miles    
Events      
Averages and records for this station are not official NWS values.
T = Trace of Precipitation, MM = Missing Value Source: Averaged Metar Reports

Daily Weather History Graph

Daily Weather History Graph

Search for Another Location

Airport:

Trip Planner

Search our weather history database for the weather conditions in past years. The results will help you decide how hot, cold, wet, or windy it might be!

Date:

Astronomy

Aug. 22, 2013 Rise Set
Actual Time 5:25 AM EET 6:28 PM EET
Civil Twilight 5:00 AM EET 6:53 PM EET
Nautical Twilight 4:31 AM EET 7:22 PM EET
Astronomical Twilight 4:01 AM EET 7:52 PM EET
Moon 7:13 PM EET (8/22) 6:41 AM EET (8/22)
Length of Visible Light 13h 52m
Length of Day
13h 02m
Full, 98% of the Moon is Illuminated
Aug 22
Full
Aug 28
Last Quarter
Sep 5
New
Sep 12
First Quarter
Sep 19
Full

Hourly Weather History & Observations

Time (EET) Temp. Heat Index Dew Point Humidity Pressure Visibility Wind Dir Wind Speed Gust Speed Precip Events Conditions
12:00 AM 82.4 °F 87.2 °F 71.6 °F 70% 29.80 in - ENE 10.4 mph - N/A   Clear
12:30 AM 80.6 °F 83.9 °F 69.8 °F 70% 29.80 in - NNE 9.2 mph - N/A   Clear
1:00 AM 80.6 °F 83.9 °F 69.8 °F 70% 29.80 in - NE 10.4 mph - N/A   Clear
1:30 AM 80.6 °F 84.6 °F 71.6 °F 74% 29.77 in - NE 10.4 mph - N/A   Clear
2:00 AM 80 °F - 72 °F 70% 29.78 in 6 mi NNE 6.9 mph - -  
2:00 AM 80.6 °F 84.6 °F 71.6 °F 74% 29.77 in - NNE 6.9 mph - N/A   Clear
2:30 AM 78.8 °F - 71.6 °F 78% 29.77 in 3.7 mi North 4.6 mph - N/A   Unknown
3:00 AM 78.8 °F - 71.6 °F 78% 29.77 in 3.7 mi NNE 4.6 mph - N/A   Unknown
3:30 AM 78.8 °F - 71.6 °F 78% 29.77 in 3.7 mi NNE 4.6 mph - N/A   Unknown
4:00 AM 77.0 °F - 71.6 °F 83% 29.77 in 3.7 mi NE 3.5 mph - N/A   Unknown
4:30 AM 77.0 °F - 71.6 °F 83% 29.77 in 3.7 mi NE 3.5 mph - N/A   Unknown
5:00 AM 77.0 °F - 71.6 °F 83% 29.77 in 3.7 mi ENE 5.8 mph - N/A   Unknown
5:30 AM 77.0 °F - 71.6 °F 83% 29.80 in 3.7 mi NNE 2.3 mph - N/A   Unknown
6:00 AM 77.0 °F - 71.6 °F 83% 29.80 in 3.7 mi Calm Calm - N/A   Unknown
6:30 AM 77.0 °F - 73.4 °F 89% 29.80 in 3.7 mi NNW 5.8 mph - N/A   Unknown
7:00 AM 77.0 °F - 73.4 °F 89% 29.80 in 3.7 mi NW 6.9 mph - N/A   Unknown
7:30 AM 77.0 °F - 73.4 °F 89% 29.80 in 3.7 mi NW 6.9 mph - N/A   Unknown
8:00 AM 78 °F - 73 °F 82% 29.82 in 4 mi NNW 5.8 mph - -   Mist
8:00 AM 77.0 °F - 73.4 °F 89% 29.83 in 3.7 mi NNW 5.8 mph - N/A   Unknown
8:30 AM 77.0 °F - 73.4 °F 89% 29.83 in 2.5 mi NNW 5.8 mph - N/A   Mist
9:00 AM 82.4 °F 88.2 °F 73.4 °F 74% 29.83 in 2.5 mi Calm Calm - N/A   Mist
9:30 AM 82.4 °F 88.2 °F 73.4 °F 74% 29.83 in 2.5 mi Calm Calm - N/A   Mist
10:00 AM 86.0 °F 91.8 °F 71.6 °F 62% 29.83 in 2.5 mi NE 2.3 mph - N/A   Haze
10:30 AM 87.8 °F 91.4 °F 68.0 °F 52% 29.83 in 2.5 mi NE 2.3 mph - N/A   Haze
11:00 AM 89.6 °F 93.4 °F 68.0 °F 49% 29.80 in 2.5 mi NNW 2.3 mph - N/A   Haze
11:30 AM 91.4 °F 91.4 °F 60.8 °F 36% 29.80 in 3.7 mi NNW 6.9 mph - N/A   Unknown
12:00 PM 91.4 °F 89.9 °F 57.2 °F 31% 29.80 in 3.7 mi NW 5.8 mph - N/A   Unknown
12:30 PM 93.2 °F - 51.8 °F 24% 29.80 in - West 8.1 mph - N/A   Clear
1:00 PM 93.2 °F - 48.2 °F 21% 29.80 in - West 8.1 mph - N/A   Clear
1:30 PM 95.0 °F - 48.2 °F 20% 29.80 in - West 8.1 mph - N/A   Clear
2:00 PM 93.2 °F 91.3 °F 55.4 °F 28% 29.80 in - NNW 9.2 mph - N/A   Clear
2:30 PM 95.0 °F - 51.8 °F 23% 29.80 in - NNW 9.2 mph - N/A   Clear
3:00 PM 95.0 °F 93.0 °F 55.4 °F 26% 29.80 in - NNW 9.2 mph - N/A   Clear
3:30 PM 93.2 °F 92.6 °F 59.0 °F 32% 29.80 in - NNW 9.2 mph - N/A   Clear
4:00 PM 93.2 °F 90.8 °F 53.6 °F 26% 29.80 in - WNW 9.2 mph - N/A   Clear
4:30 PM 93.2 °F 90.8 °F 53.6 °F 26% 29.80 in - NW 11.5 mph - N/A   Clear
5:00 PM 93.2 °F - 50.0 °F 23% 29.80 in - NNW 13.8 mph - N/A   Clear
5:30 PM 91.4 °F - 48.2 °F 23% 29.80 in - NNW 11.5 mph - N/A   Clear
6:00 PM 91.4 °F - 50.0 °F 24% 29.80 in - NNW 10.4 mph - N/A   Clear
6:30 PM 89.6 °F 88.9 °F 59.0 °F 36% 29.80 in - NNW 10.4 mph - N/A   Clear
7:00 PM 89.6 °F 90.1 °F 62.6 °F 40% 29.80 in - North 10.4 mph - N/A   Clear
7:30 PM 87.8 °F 91.4 °F 68.0 °F 52% 29.83 in - North 10.4 mph - N/A   Clear
8:00 PM 86 °F - 68 °F 46% 29.82 in 6 mi North 13.8 mph - -  
8:00 PM 86.0 °F 89.4 °F 68.0 °F 55% 29.83 in - North 13.8 mph - N/A   Clear
8:30 PM 86.0 °F 88.2 °F 66.2 °F 51% 29.83 in - North 15.0 mph - N/A   Clear
9:00 PM 86.0 °F 88.2 °F 66.2 °F 51% 29.86 in - North 11.5 mph - N/A   Clear
9:30 PM 84.2 °F 85.6 °F 64.4 °F 51% 29.86 in - North 13.8 mph - N/A   Clear
10:00 PM 82.4 °F 83.9 °F 64.4 °F 54% 29.86 in - NE 12.7 mph - N/A   Clear
10:30 PM 80.6 °F 82.3 °F 64.4 °F 58% 29.86 in - NE 12.7 mph - N/A   Clear
11:00 PM 80.6 °F 82.3 °F 64.4 °F 58% 29.86 in - NNE 11.5 mph - N/A   Clear
11:30 PM 80.6 °F 83.2 °F 68.0 °F 65% 29.86 in - NNE 11.5 mph - N/A   Clear